TimeCST,TemperatureF,Dew PointF,Humidity,Sea Level PressureIn,VisibilityMPH,Wind Direction,Wind SpeedMPH,Gust SpeedMPH,PrecipitationIn,Events,Conditions,WindDirDegrees,DateUTC
12:15 AM,35.6,30.2,81,30.32,10.0,Calm,Calm,-,N/A,,Clear,0,2012-11-29 06:15:00
12:35 AM,33.8,28.4,81,30.32,10.0,Calm,Calm,-,N/A,,Clear,0,2012-11-29 06:35:00
12:55 AM,33.8,28.4,81,30.31,10.0,Calm,Calm,-,N/A,,Clear,0,2012-11-29 06:55:00
1:15 AM,33.8,28.4,81,30.31,10.0,Calm,Calm,-,N/A,,Clear,0,2012-11-29 07:15:00
1:35 AM,33.8,28.4,81,30.31,10.0,Calm,Calm,-,N/A,,Clear,0,2012-11-29 07:35:00
1:55 AM,33.8,28.4,81,30.31,10.0,Calm,Calm,-,N/A,,Clear,0,2012-11-29 07:55:00
2:15 AM,32.0,26.6,80,30.31,10.0,Calm,Calm,-,N/A,,Clear,0,2012-11-29 08:15:00
2:35 AM,32.0,28.4,87,30.31,10.0,Calm,Calm,-,N/A,,Clear,0,2012-11-29 08:35:00
2:55 AM,30.2,26.6,86,30.31,10.0,Calm,Calm,-,N/A,,Clear,0,2012-11-29 08:55:00
3:15 AM,30.2,26.6,86,30.31,10.0,Calm,Calm,-,N/A,,Clear,0,2012-11-29 09:15:00
3:35 AM,30.2,26.6,86,30.31,10.0,Calm,Calm,-,N/A,,Clear,0,2012-11-29 09:35:00
3:55 AM,30.2,26.6,86,30.31,10.0,Calm,Calm,-,N/A,,Clear,0,2012-11-29 09:55:00
4:15 AM,30.2,26.6,86,30.30,10.0,Calm,Calm,-,N/A,,Clear,0,2012-11-29 10:15:00
4:35 AM,30.2,26.6,86,30.30,10.0,Calm,Calm,-,N/A,,Clear,0,2012-11-29 10:35:00
4:55 AM,30.2,26.6,86,30.30,10.0,Calm,Calm,-,N/A,,Clear,0,2012-11-29 10:55:00
5:15 AM,30.2,26.6,86,30.30,10.0,Calm,Calm,-,N/A,,Clear,0,2012-11-29 11:15:00
5:35 AM,30.2,26.6,86,30.30,10.0,Calm,Calm,-,N/A,,Clear,0,2012-11-29 11:35:00
5:55 AM,28.4,24.8,86,30.30,10.0,Calm,Calm,-,N/A,,Clear,0,2012-11-29 11:55:00
6:15 AM,28.4,24.8,86,30.30,10.0,Calm,Calm,-,N/A,,Clear,0,2012-11-29 12:15:00
6:35 AM,30.2,24.8,80,30.30,10.0,Calm,Calm,-,N/A,,Clear,0,2012-11-29 12:35:00
6:55 AM,30.2,24.8,80,30.31,10.0,Calm,Calm,-,N/A,,Clear,0,2012-11-29 12:55:00
7:15 AM,28.4,24.8,86,30.31,10.0,Calm,Calm,-,N/A,,Clear,0,2012-11-29 13:15:00
7:35 AM,30.2,26.6,86,30.32,10.0,Calm,Calm,-,N/A,,Clear,0,2012-11-29 13:35:00
7:55 AM,33.8,28.4,81,30.32,10.0,Calm,Calm,-,N/A,,Clear,0,2012-11-29 13:55:00
8:15 AM,35.6,32.0,87,30.32,10.0,Calm,Calm,-,N/A,,Clear,0,2012-11-29 14:15:00
8:35 AM,44.6,37.4,76,30.32,10.0,SE,6.9,-,N/A,,Clear,130,2012-11-29 14:35:00
8:55 AM,44.6,35.6,71,30.32,10.0,SE,5.8,-,N/A,,Clear,130,2012-11-29 14:55:00
9:15 AM,48.2,39.2,71,30.33,10.0,SE,6.9,-,N/A,,Clear,140,2012-11-29 15:15:00
9:35 AM,50.0,39.2,66,30.33,10.0,SE,6.9,-,N/A,,Clear,140,2012-11-29 15:35:00
10:15 AM,53.6,39.2,58,30.33,10.0,SE,8.1,-,N/A,,Clear,140,2012-11-29 16:15:00
10:35 AM,55.4,41.0,58,30.32,10.0,SSE,6.9,-,N/A,,Clear,150,2012-11-29 16:35:00
10:55 AM,57.2,41.0,55,30.31,10.0,SE,8.1,-,N/A,,Clear,140,2012-11-29 16:55:00
11:15 AM,59.0,42.8,55,30.30,10.0,SSE,9.2,-,N/A,,Clear,160,2012-11-29 17:15:00
11:35 AM,59.0,44.6,59,30.29,10.0,South,6.9,-,N/A,,Clear,170,2012-11-29 17:35:00
11:55 AM,60.8,44.6,55,30.28,10.0,SE,3.5,-,N/A,,Clear,140,2012-11-29 17:55:00
12:15 PM,62.6,44.6,52,30.27,10.0,South,6.9,-,N/A,,Clear,170,2012-11-29 18:15:00
12:35 PM,62.6,44.6,52,30.26,10.0,South,5.8,-,N/A,,Clear,170,2012-11-29 18:35:00
12:55 PM,64.4,44.6,49,30.25,10.0,SSW,5.8,-,N/A,,Clear,200,2012-11-29 18:55:00
1:15 PM,64.4,44.6,49,30.23,10.0,South,5.8,-,N/A,,Clear,180,2012-11-29 19:15:00
1:35 PM,64.4,44.6,49,30.22,10.0,SSW,4.6,-,N/A,,Clear,210,2012-11-29 19:35:00
1:55 PM,66.2,46.4,49,30.21,10.0,South,5.8,-,N/A,,Clear,180,2012-11-29 19:55:00
2:15 PM,66.2,46.4,49,30.20,10.0,SE,8.1,-,N/A,,Clear,130,2012-11-29 20:15:00
2:35 PM,66.2,46.4,49,30.20,10.0,ESE,6.9,-,N/A,,Clear,110,2012-11-29 20:35:00
2:55 PM,66.2,46.4,49,30.19,10.0,SE,4.6,-,N/A,,Clear,130,2012-11-29 20:55:00
3:15 PM,66.2,46.4,49,30.19,10.0,SSE,8.1,-,N/A,,Clear,150,2012-11-29 21:15:00
3:35 PM,66.2,46.4,49,30.19,10.0,ESE,6.9,-,N/A,,Clear,120,2012-11-29 21:35:00
3:55 PM,66.2,46.4,49,30.18,10.0,SSE,5.8,-,N/A,,Clear,150,2012-11-29 21:55:00
4:15 PM,64.4,46.4,52,30.18,10.0,SE,8.1,-,N/A,,Clear,130,2012-11-29 22:15:00
4:35 PM,64.4,46.4,52,30.19,10.0,ESE,6.9,-,N/A,,Clear,120,2012-11-29 22:35:00
4:55 PM,60.8,44.6,55,30.19,10.0,ESE,4.6,-,N/A,,Clear,120,2012-11-29 22:55:00
5:15 PM,59.0,44.6,59,30.18,10.0,SE,3.5,-,N/A,,Clear,130,2012-11-29 23:15:00
5:35 PM,55.4,44.6,67,30.19,10.0,ESE,4.6,-,N/A,,Clear,110,2012-11-29 23:35:00
5:55 PM,55.4,44.6,67,30.19,10.0,ESE,4.6,-,N/A,,Clear,110,2012-11-29 23:55:00
6:15 PM,55.4,44.6,67,30.19,10.0,ESE,4.6,-,N/A,,Clear,120,2012-11-30 00:15:00
6:35 PM,55.4,44.6,67,30.20,10.0,SE,4.6,-,N/A,,Clear,130,2012-11-30 00:35:00
6:55 PM,55.4,44.6,67,30.20,10.0,SE,4.6,-,N/A,,Clear,130,2012-11-30 00:55:00
7:15 PM,55.4,44.6,67,30.20,10.0,SE,4.6,-,N/A,,Clear,130,2012-11-30 01:15:00
7:35 PM,55.4,44.6,67,30.21,10.0,SE,3.5,-,N/A,,Clear,140,2012-11-30 01:35:00
7:55 PM,51.8,42.8,71,30.21,10.0,ESE,5.8,-,N/A,,Clear,120,2012-11-30 01:55:00
8:15 PM,51.8,42.8,71,30.21,10.0,SE,5.8,-,N/A,,Clear,130,2012-11-30 02:15:00
8:35 PM,51.8,42.8,71,30.21,10.0,SE,5.8,-,N/A,,Clear,130,2012-11-30 02:35:00
8:55 PM,51.8,42.8,71,30.21,10.0,SE,5.8,-,N/A,,Clear,140,2012-11-30 02:55:00
9:15 PM,51.8,42.8,71,30.21,10.0,SSE,5.8,-,N/A,,Clear,150,2012-11-30 03:15:00
9:35 PM,51.8,42.8,71,30.21,10.0,SE,6.9,-,N/A,,Clear,140,2012-11-30 03:35:00
9:55 PM,51.8,41.0,67,30.22,10.0,SE,3.5,-,N/A,,Clear,140,2012-11-30 03:55:00
10:15 PM,50.0,39.2,66,30.21,10.0,SE,5.8,-,N/A,,Clear,130,2012-11-30 04:15:00
10:35 PM,50.0,41.0,71,30.21,10.0,SE,4.6,-,N/A,,Clear,140,2012-11-30 04:35:00
10:55 PM,48.2,39.2,71,30.21,10.0,ESE,4.6,-,N/A,,Clear,120,2012-11-30 04:55:00
11:15 PM,48.2,41.0,76,30.21,10.0,SE,6.9,-,N/A,,Clear,130,2012-11-30 05:15:00
11:35 PM,48.2,41.0,76,30.21,10.0,SSE,3.5,-,N/A,,Clear,150,2012-11-30 05:35:00
11:55 PM,46.4,39.2,76,30.22,10.0,Calm,Calm,-,N/A,,Clear,0,2012-11-30 05:55:00